Weather History for Bishop, CA

Change the Weather History Date:

Monday, June 17, 2013

  Actual Average Record
Temperature  
Mean Temperature 76 °F 72 °F  
Max Temperature 95 °F 93 °F 104 °F (1985)
Min Temperature 57 °F 51 °F 39 °F (1944)
Degree Days  
Heating Degree Days 0 0  
Month to date heating degree days 0 17  
Since 1 June heating degree days 0 17  
Since 1 July heating degree days 3851 4175  
Cooling Degree Days 11 7  
Month to date cooling degree days 180 97  
Year to date cooling degree days 266 165  
Since 1 June cooling degree days 180 97  
Growing Degree Days 26 (Base 50)    
Moisture  
Dew Point 24 °F    
Average Humidity 20    
Maximum Humidity 33    
Minimum Humidity 6    
Precipitation  
Precipitation 0.00 in 0.00 in 0.05 in (1969)
Month to date precipitation T 0.12  
Year to date precipitation 0.47 3.00  
Snow  
Snow 0.00 in 0.00 in - ()
Month to date snowfall 0.0 0.0  
Since 1 June snowfall 0.0 0.0  
Since 1 July snowfall 2.8 6.8  
Snow Depth 0.00 in    
Sea Level Pressure  
Sea Level Pressure 29.83 in    
Wind  
Wind Speed 7 mph (WNW)    
Max Wind Speed 16 mph    
Max Gust Speed 21 mph    
Visibility 10 miles    
Events      
T = Trace of Precipitation, MM = Missing Value Source: NWS Daily Summary

Daily Weather History Graph

Daily Weather History Graph

Search for Another Location

Airport:

Trip Planner

Search our weather history database for the weather conditions in past years. The results will help you decide how hot, cold, wet, or windy it might be!

Date:

Astronomy

Jun. 17, 2013 Rise Set
Actual Time 5:32 AM PDT 8:16 PM PDT
Civil Twilight 5:01 AM PDT 8:47 PM PDT
Nautical Twilight 4:22 AM PDT 9:26 PM PDT
Astronomical Twilight 3:38 AM PDT 10:10 PM PDT
Moon 2:06 PM PDT (6/17) 1:03 AM PDT (6/17)
Length of Visible Light 15h 46m
Length of Day
14h 44m
First Quarter, 61% of the Moon is Illuminated
Jun 17
First Quarter
Jun 23
Full
Jun 29
Last Quarter
Jul 8
New
Jul 15
First Quarter

Hourly Weather History & Observations

Time (PDT) Temp. Dew Point Humidity Pressure Visibility Wind Dir Wind Speed Gust Speed Precip Events Conditions
12:56 AM 66.0 °F 28.9 °F 25% 29.91 in 10.0 mi NNW 5.8 mph - N/A   Clear
1:56 AM 64.0 °F 28.0 °F 26% 29.91 in 10.0 mi North 5.8 mph - N/A   Clear
2:56 AM 64.9 °F 27.0 °F 24% 29.91 in 10.0 mi WNW 6.9 mph - N/A   Clear
3:56 AM 61.0 °F 27.0 °F 27% 29.91 in 10.0 mi NW 5.8 mph - N/A   Clear
4:56 AM 61.0 °F 28.0 °F 29% 29.92 in 10.0 mi NW 5.8 mph - N/A   Clear
5:56 AM 59.0 °F 30.9 °F 35% 29.93 in 10.0 mi WNW 8.1 mph - N/A   Clear
6:56 AM 64.9 °F 32.0 °F 29% 29.93 in 10.0 mi Calm Calm - N/A   Clear
7:56 AM 71.1 °F 30.9 °F 23% 29.93 in 10.0 mi Variable 3.5 mph - N/A   Clear
8:56 AM 77.0 °F 30.9 °F 19% 29.92 in 10.0 mi WNW 6.9 mph - N/A   Clear
9:56 AM 82.0 °F 28.0 °F 14% 29.90 in 10.0 mi WNW 6.9 mph - N/A   Clear
10:56 AM 84.9 °F 26.1 °F 12% 29.87 in 10.0 mi Calm Calm - N/A   Clear
11:56 AM 89.1 °F 25.0 °F 10% 29.85 in 10.0 mi Calm Calm - N/A   Clear
12:56 PM 91.9 °F 19.0 °F 7% 29.82 in 10.0 mi SSE 10.4 mph - N/A   Clear
1:56 PM 93.0 °F 15.1 °F 6% 29.80 in 10.0 mi South 9.2 mph - N/A   Clear
2:56 PM 93.9 °F 15.1 °F 6% 29.77 in 10.0 mi SE 9.2 mph 17.3 mph N/A   Clear
3:56 PM 93.9 °F 15.1 °F 6% 29.75 in 10.0 mi SSW 6.9 mph 18.4 mph N/A   Clear
4:56 PM 91.0 °F 17.1 °F 7% 29.74 in 10.0 mi South 11.5 mph - N/A   Clear
5:56 PM 93.0 °F 15.1 °F 6% 29.72 in 10.0 mi SSE 15.0 mph 18.4 mph N/A   Clear
6:56 PM 91.0 °F 14.0 °F 6% 29.71 in 10.0 mi South 6.9 mph - N/A   Clear
7:56 PM 86.0 °F 24.1 °F 10% 29.72 in 10.0 mi North 10.4 mph - N/A   Clear
8:56 PM 78.1 °F 28.0 °F 16% 29.74 in 10.0 mi North 11.5 mph - N/A   Clear
9:56 PM 73.0 °F 25.0 °F 17% 29.77 in 10.0 mi NNW 4.6 mph - N/A   Clear
10:56 PM 71.1 °F 24.1 °F 17% 29.78 in 10.0 mi NW 4.6 mph - N/A   Clear
11:56 PM 70.0 °F 23.0 °F 17% 29.77 in 10.0 mi WNW 9.2 mph - N/A   Clear